When you browse on this site, cookies collect data to enhance your experience and personalize the content and advertising you see.
Visit our Privacy Policy to learn more. By continuing to use the site, you agree to this use of cookies and data.
  • în România
  • Lista ţărilor
  • Pe 7 zile
  • Temperatura apei
  • Meteo pe hartă
  • Widget-uri
  • user-avatar
    Intrare

    Meteo pe oră la Uyna

    Astăzi, 19 Septembrie, Joi

    Timp Temperatura Precipitaţii Vânt Presiune Umiditate
    00:00 +22°C° 0 mm 0 m/s 739 mmHg 99%
    01:00 +22°C° 0 mm 0 m/s 739 mmHg 99%
    02:00 +22°C° 0 mm 0 m/s 738 mmHg 99%
    03:00 +21°C° 0 mm 0 m/s 738 mmHg 99%
    04:00 +21°C° 0 mm 0 m/s 738 mmHg 99%
    05:00 +21°C° 0 mm 0 m/s 738 mmHg 99%
    06:00 +21°C° 0 mm 0 m/s 738 mmHg 99%
    07:00 +24°C° 0 mm 0 m/s 738 mmHg 88%
    08:00 +27°C° 0 mm 0 m/s 739 mmHg 77%
    09:00 +29°C° 0 mm 0 m/s 739 mmHg 65%
    10:00 +31°C° 0 mm 0 m/s 738 mmHg 57%
    11:00 +34°C° 0 mm 1 m/s 738 mmHg 49%
    12:00 +36°C° 0 mm 1 m/s 737 mmHg 41%
    13:00 +35°C° 0 mm 1 m/s 736 mmHg 44%
    14:00 +35°C° 0 mm 1 m/s 736 mmHg 48%
    15:00 +34°C° 0 mm 1 m/s 735 mmHg 51%
    16:00 +32°C° 0.6 mm 1 m/s 735 mmHg 63%
    17:00 +29°C° 0.6 mm 1 m/s 736 mmHg 74%
    18:00 +27°C° 0.6 mm 1 m/s 736 mmHg 86%
    19:00 +26°C° 1 mm 1 m/s 737 mmHg 90%
    20:00 +23°C° 1 mm 0 m/s 737 mmHg 94%
    21:00 +22°C° 1 mm 0 m/s 738 mmHg 98%
    22:00 +22°C° 0.3 mm 0 m/s 738 mmHg 98%
    23:00 +22°C° 0.3 mm 0 m/s 738 mmHg 98%

    Mâine, 20 Septembrie, Vineri

    Timp Temperatura Precipitaţii Vânt Presiune Umiditate
    00:00 +22°C° 0.3 mm 0 m/s 738 mmHg 98%
    01:00 +22°C° 0 mm 0 m/s 737 mmHg 98%
    02:00 +22°C° 0 mm 0 m/s 737 mmHg 98%
    03:00 +21°C° 0 mm 0 m/s 737 mmHg 99%
    04:00 +21°C° 0 mm 0 m/s 737 mmHg 99%
    05:00 +21°C° 0 mm 0 m/s 738 mmHg 99%
    06:00 +21°C° 0 mm 0 m/s 738 mmHg 99%
    07:00 +24°C° 0 mm 0 m/s 738 mmHg 87%
    08:00 +27°C° 0 mm 0 m/s 739 mmHg 74%
    09:00 +30°C° 0 mm 0 m/s 739 mmHg 62%
    10:00 +31°C° 0.1 mm 0 m/s 739 mmHg 59%
    11:00 +32°C° 0.1 mm 0 m/s 738 mmHg 55%
    12:00 +35°C° 0.1 mm 1 m/s 738 mmHg 52%
    13:00 +34°C° 0.2 mm 1 m/s 737 mmHg 54%
    14:00 +34°C° 0.2 mm 1 m/s 737 mmHg 57%
    15:00 +33°C° 0.2 mm 1 m/s 736 mmHg 59%
    16:00 +31°C° 0.5 mm 1 m/s 736 mmHg 71%
    17:00 +28°C° 0.5 mm 1 m/s 737 mmHg 83%
    18:00 +26°C° 0.5 mm 1 m/s 737 mmHg 94%
    19:00 +23°C° 0.4 mm 0 m/s 738 mmHg 96%
    20:00 +23°C° 0.4 mm 0 m/s 738 mmHg 97%
    21:00 +23°C° 0.4 mm 0 m/s 739 mmHg 98%
    22:00 +23°C° 0 mm 0 m/s 739 mmHg 98%
    23:00 +23°C° 0 mm 0 m/s 739 mmHg 98%

    Poimâine, 21 Septembrie, Sâmbătă

    Timp Temperatura Precipitaţii Vânt Presiune Umiditate
    00:00 +23°C° 0 mm 0 m/s 739 mmHg 98%
    01:00 +23°C° 0.1 mm 0 m/s 739 mmHg 98%
    02:00 +23°C° 0.1 mm 0 m/s 739 mmHg 98%
    03:00 +23°C° 0.1 mm 0 m/s 739 mmHg 98%
    04:00 +22°C° 0 mm 0 m/s 739 mmHg 98%
    05:00 +22°C° 0 mm 0 m/s 739 mmHg 99%
    06:00 +22°C° 0 mm 0 m/s 739 mmHg 99%
    07:00 +25°C° 0 mm 0 m/s 739 mmHg 89%
    08:00 +27°C° 0 mm 0 m/s 740 mmHg 79%
    09:00 +29°C° 0 mm 0 m/s 740 mmHg 68%
    10:00 +30°C° 0.3 mm 0 m/s 739 mmHg 65%
    11:00 +33°C° 0.3 mm 1 m/s 739 mmHg 61%
    12:00 +34°C° 0.3 mm 1 m/s 738 mmHg 57%
    13:00 +33°C° 0.9 mm 1 m/s 738 mmHg 64%
    14:00 +32°C° 0.9 mm 1 m/s 737 mmHg 71%
    15:00 +31°C° 0.9 mm 1 m/s 736 mmHg 79%
    16:00 +29°C° 0.6 mm 1 m/s 737 mmHg 84%
    17:00 +28°C° 0.6 mm 1 m/s 737 mmHg 90%
    18:00 +24°C° 0.6 mm 0 m/s 738 mmHg 95%
    19:00 +24°C° 0.1 mm 0 m/s 738 mmHg 96%
    20:00 +23°C° 0.1 mm 0 m/s 739 mmHg 97%
    21:00 +23°C° 0.1 mm 0 m/s 740 mmHg 98%
    22:00 +23°C° 0.1 mm 0 m/s 740 mmHg 98%
    23:00 +22°C° 0.1 mm 0 m/s 739 mmHg 98%

    22 Septembrie, Duminică

    Timp Temperatura Precipitaţii Vânt Presiune Umiditate
    00:00 +22°C° 0.1 mm 0 m/s 739 mmHg 98%
    01:00 +22°C° 0.1 mm 0 m/s 739 mmHg 98%
    02:00 +22°C° 0.1 mm 0 m/s 739 mmHg 99%
    03:00 +22°C° 0.1 mm 0 m/s 738 mmHg 99%
    04:00 +22°C° 0 mm 0 m/s 739 mmHg 99%
    05:00 +21°C° 0 mm 0 m/s 739 mmHg 99%
    06:00 +21°C° 0 mm 0 m/s 739 mmHg 99%
    07:00 +24°C° 0 mm 0 m/s 739 mmHg 88%
    08:00 +27°C° 0 mm 0 m/s 740 mmHg 77%
    09:00 +30°C° 0 mm 0 m/s 740 mmHg 66%
    10:00 +31°C° 0 mm 0 m/s 739 mmHg 59%
    11:00 +33°C° 0 mm 0 m/s 739 mmHg 51%
    12:00 +36°C° 0 mm 1 m/s 738 mmHg 43%
    13:00 +35°C° 0 mm 1 m/s 738 mmHg 46%
    14:00 +35°C° 0 mm 1 m/s 737 mmHg 49%
    15:00 +34°C° 0 mm 1 m/s 736 mmHg 51%
    16:00 +31°C° 0.2 mm 1 m/s 737 mmHg 64%
    17:00 +29°C° 0.2 mm 1 m/s 737 mmHg 76%
    18:00 +24°C° 0.2 mm 0 m/s 738 mmHg 89%
    19:00 +24°C° 0.2 mm 0 m/s 738 mmHg 92%
    20:00 +23°C° 0.2 mm 0 m/s 739 mmHg 95%
    21:00 +23°C° 0.2 mm 0 m/s 740 mmHg 97%
    22:00 +22°C° 0.1 mm 0 m/s 740 mmHg 98%
    23:00 +22°C° 0.1 mm 0 m/s 739 mmHg 98%

    23 Septembrie, Luni

    Timp Temperatura Precipitaţii Vânt Presiune Umiditate
    00:00 +22°C° 0.1 mm 0 m/s 739 mmHg 99%
    01:00 +22°C° 0.2 mm 0 m/s 739 mmHg 99%
    02:00 +22°C° 0.2 mm 0 m/s 739 mmHg 99%
    03:00 +22°C° 0.2 mm 0 m/s 738 mmHg 99%
    04:00 +22°C° 0.8 mm 0 m/s 739 mmHg 99%
    05:00 +22°C° 0.8 mm 0 m/s 739 mmHg 99%
    06:00 +22°C° 0.8 mm 0 m/s 739 mmHg 99%
    07:00 +23°C° 0 mm 0 m/s 740 mmHg 95%
    08:00 +25°C° 0 mm 0 m/s 740 mmHg 90%
    09:00 +26°C° 0 mm 0 m/s 740 mmHg 86%
    10:00 +27°C° 0.8 mm 0 m/s 740 mmHg 83%
    11:00 +29°C° 0.8 mm 0 m/s 739 mmHg 81%
    12:00 +30°C° 0.8 mm 0 m/s 739 mmHg 78%
    13:00 +29°C° 1.4 mm 0 m/s 738 mmHg 81%
    14:00 +29°C° 1.4 mm 0 m/s 737 mmHg 84%
    15:00 +28°C° 1.4 mm 0 m/s 737 mmHg 87%
    16:00 +27°C° 1.1 mm 0 m/s 737 mmHg 90%
    17:00 +25°C° 1.1 mm 0 m/s 738 mmHg 93%
    18:00 +24°C° 1.1 mm 0 m/s 738 mmHg 96%
    19:00 +23°C° 1.1 mm 0 m/s 739 mmHg 96%
    20:00 +23°C° 1.1 mm 0 m/s 739 mmHg 97%
    21:00 +23°C° 1.1 mm 0 m/s 740 mmHg 97%
    22:00 +22°C° 0.5 mm 0 m/s 739 mmHg 98%
    23:00 +22°C° 0.5 mm 0 m/s 739 mmHg 98%

    24 Septembrie, Marţi

    Timp Temperatura Precipitaţii Vânt Presiune Umiditate
    00:00 +22°C° 0.5 mm 0 m/s 739 mmHg 98%
    01:00 +22°C° 0.2 mm 0 m/s 739 mmHg 99%
    02:00 +22°C° 0.2 mm 0 m/s 738 mmHg 99%
    03:00 +22°C° 0.2 mm 0 m/s 738 mmHg 99%
    04:00 +22°C° 0 mm 0 m/s 738 mmHg 99%
    05:00 +22°C° 0 mm 0 m/s 739 mmHg 99%
    06:00 +22°C° 0 mm 0 m/s 739 mmHg 99%
    07:00 +24°C° 0 mm 0 m/s 739 mmHg 88%
    08:00 +27°C° 0 mm 0 m/s 740 mmHg 77%
    09:00 +30°C° 0 mm 0 m/s 740 mmHg 66%
    10:00 +31°C° 0.1 mm 0 m/s 739 mmHg 63%
    11:00 +32°C° 0.1 mm 0 m/s 739 mmHg 59%
    12:00 +35°C° 0.1 mm 1 m/s 738 mmHg 56%
    13:00 +34°C° 1.2 mm 1 m/s 737 mmHg 66%
    14:00 +32°C° 1.2 mm 1 m/s 737 mmHg 77%
    15:00 +31°C° 1.2 mm 1 m/s 736 mmHg 87%
    16:00 +29°C° 1.1 mm 1 m/s 737 mmHg 90%
    17:00 +28°C° 1.1 mm 1 m/s 737 mmHg 93%
    18:00 +24°C° 1.1 mm 0 m/s 737 mmHg 96%
    19:00 +24°C° 2.6 mm 0 m/s 738 mmHg 97%
    20:00 +24°C° 2.6 mm 0 m/s 739 mmHg 98%
    21:00 +23°C° 2.6 mm 0 m/s 739 mmHg 98%
    22:00 +23°C° 2 mm 0 m/s 739 mmHg 99%
    23:00 +23°C° 2 mm 0 m/s 739 mmHg 99%
    Arată mai mult